Regional Weather Roundup
Issued by NWS

Home | Current Version | Previous Version | Graphics & Text | Print | Product List | Glossary On
Versions: 1 2 3 4 5 6 7 8 9 10 11 12 13 14 15 16 17 18 19 20 21 22 23 24 25 26 27 28 29 30 31 32 33 34 35 36 37 38 39 40 41 42 43 44 45 46 47 48 49 50
000
ASUS45 KBOI 152110
RWRID
WEATHER ROUNDUP FOR IDAHO
NATIONAL WEATHER SERVICE BOISE ID
300 PM MDT MON SEP 15 2014

NOTE: "FAIR" INDICATES FEW OR NO CLOUDS BELOW 12000 FEET
WITH NO SIGNIFICANT WEATHER AND/OR OBSTRUCTIONS TO VISIBILITY

IDZ012-014-152200-
SOUTHWEST IDAHO


CITY           SKY/WX    TMP DP  RH WIND       PRES   REMARKS
BOISE          SUNNY     90  32  12 VRB3      29.98F
CALDWELL       SUNNY     84  45  24 E5        29.99F
MOUNTAIN HOME  MOSUNNY   88  32  13 E6        29.99F
$$

IDZ016-017-152200-
SOUTHCENTRAL IDAHO


CITY           SKY/WX    TMP DP  RH WIND       PRES   REMARKS
BURLEY         SUNNY     86  37  17 CALM      30.07F
JEROME         SUNNY     84  40  21 VRB3      30.08F
TWIN FALLS     SUNNY     86  41  20 N6        30.08F
$$

IDZ019>023-152200-
SOUTHEAST IDAHO


CITY           SKY/WX    TMP DP  RH WIND       PRES   REMARKS
IDAHO FALLS    MOSUNNY   83  32  16 SW6       30.12F
POCATELLO      MOSUNNY   86  30  13 W10       30.11F
REXBURG        MOSUNNY   81  32  17 SW8       30.13F HAZE
$$

IDZ006-010-011-018-031-032-152200-
CENTRAL IDAHO MOUNTAINS


CITY           SKY/WX    TMP DP  RH WIND       PRES   REMARKS
MCCALL         SUNNY     80  29  15 S10       30.11F
HAILEY         MOSUNNY   81  36  19 S8G16     30.16F
STANLEY          N/A     77  25  14 SW13G20   30.22F
SALMON         SUNNY     73  34  23 W3        30.08F
CHALLIS        SUNNY     79  28  15 N3        30.12F
$$

IDZ002-004-006-007-026-152200-
NORTHERN IDAHO


CITY           SKY/WX    TMP DP  RH WIND       PRES   REMARKS
LEWISTON       SUNNY     80  36  20 CALM      29.92F
LOWELL           N/A     77  46  33 CALM      29.95F
COEUR D`ALENE  SUNNY     79  36  21 SE3       29.98F
MULLAN PASS    SUNNY     68  28  22 CALM      30.18S
$$


USA.gov is the U.S. government's official web portal to all federal, state and local government web resources and services.